TimeEDT,TemperatureF,Dew PointF,Humidity,Sea Level PressureIn,VisibilityMPH,Wind Direction,Wind SpeedMPH,Gust SpeedMPH,PrecipitationIn,Events,Conditions,WindDirDegrees,DateUTC
12:15 AM,55.4,46.4,72,29.93,10.0,Calm,Calm,-,N/A,,Clear,0,2012-10-17 04:15:00
12:55 AM,51.8,48.2,88,29.93,10.0,Calm,Calm,-,N/A,,Clear,0,2012-10-17 04:55:00
1:15 AM,51.8,48.2,88,29.93,10.0,Calm,Calm,-,N/A,,Clear,0,2012-10-17 05:15:00
1:35 AM,46.4,46.4,100,29.93,10.0,Calm,Calm,-,N/A,,Clear,0,2012-10-17 05:35:00
1:55 AM,46.4,46.4,100,29.93,10.0,Calm,Calm,-,N/A,,Clear,0,2012-10-17 05:55:00
2:15 AM,48.2,46.4,93,29.94,10.0,WNW,4.6,-,N/A,,Clear,300,2012-10-17 06:15:00
2:35 AM,50.0,48.2,94,29.93,10.0,NW,5.8,-,N/A,,Clear,320,2012-10-17 06:35:00
2:55 AM,50.0,48.2,94,29.93,10.0,Calm,Calm,-,N/A,,Clear,0,2012-10-17 06:55:00
3:15 AM,51.8,48.2,88,29.93,10.0,Calm,Calm,-,N/A,,Clear,0,2012-10-17 07:15:00
3:35 AM,51.8,48.2,88,29.93,10.0,Calm,Calm,-,N/A,,Clear,0,2012-10-17 07:35:00
3:55 AM,51.8,46.4,82,29.92,10.0,Calm,Calm,-,N/A,,Clear,0,2012-10-17 07:55:00
4:15 AM,50.0,48.2,94,29.92,10.0,Calm,Calm,-,N/A,,Clear,0,2012-10-17 08:15:00
4:35 AM,51.8,48.2,88,29.92,10.0,Calm,Calm,-,N/A,,Clear,0,2012-10-17 08:35:00
4:55 AM,51.8,48.2,88,29.93,10.0,Calm,Calm,-,N/A,,Clear,0,2012-10-17 08:55:00
5:15 AM,51.8,46.4,82,29.92,10.0,Calm,Calm,-,N/A,,Clear,0,2012-10-17 09:15:00
6:15 AM,51.8,48.2,88,29.94,10.0,Calm,Calm,-,N/A,,Clear,0,2012-10-17 10:15:00
6:35 AM,51.8,46.4,82,29.94,10.0,Calm,Calm,-,N/A,,Clear,0,2012-10-17 10:35:00
6:47 AM,53.6,48.2,82,29.95,10.0,Calm,Calm,-,N/A,,Clear,0,2012-10-17 10:47:00
7:47 AM,51.8,48.2,88,29.96,10.0,Calm,Calm,-,N/A,,Clear,0,2012-10-17 11:47:00
8:47 AM,53.6,48.2,82,29.97,10.0,ENE,3.5,-,N/A,,Clear,60,2012-10-17 12:47:00
9:49 AM,57.2,50.0,77,30.00,10.0,Calm,Calm,-,N/A,,Clear,0,2012-10-17 13:49:00
10:47 AM,62.6,48.2,59,30.00,10.0,Calm,Calm,-,N/A,,Clear,0,2012-10-17 14:47:00
11:47 AM,68.0,46.4,46,29.99,10.0,South,4.6,-,N/A,,Clear,190,2012-10-17 15:47:00
12:47 PM,71.6,46.4,41,29.98,10.0,SSW,9.2,-,N/A,,Clear,210,2012-10-17 16:47:00
1:47 PM,71.6,44.6,38,29.94,10.0,SSW,8.1,16.1,N/A,,Clear,210,2012-10-17 17:47:00
2:47 PM,73.4,44.6,36,29.92,10.0,South,9.2,-,N/A,,Clear,180,2012-10-17 18:47:00
3:47 PM,73.4,44.6,36,29.90,10.0,South,5.8,-,N/A,,Clear,180,2012-10-17 19:47:00
4:47 PM,73.4,44.6,36,29.89,10.0,SSW,4.6,-,N/A,,Clear,200,2012-10-17 20:47:00
6:47 PM,69.8,46.4,43,29.90,10.0,SSE,3.5,-,N/A,,Clear,150,2012-10-17 22:47:00
7:47 PM,64.4,48.2,56,29.91,10.0,SE,3.5,-,N/A,,Clear,140,2012-10-17 23:47:00
8:47 PM,62.6,46.4,55,29.91,10.0,SE,4.6,-,N/A,,Clear,140,2012-10-18 00:47:00
9:15 PM,60.8,46.4,59,29.92,10.0,SE,4.6,-,N/A,,Clear,130,2012-10-18 01:15:00
9:35 PM,60.8,46.4,59,29.92,10.0,SE,5.8,-,N/A,,Clear,140,2012-10-18 01:35:00
9:55 PM,60.8,46.4,59,29.92,10.0,SSE,6.9,-,N/A,,Clear,150,2012-10-18 01:55:00
10:15 PM,59.0,46.4,63,29.92,10.0,SSE,4.6,-,N/A,,Clear,150,2012-10-18 02:15:00
10:35 PM,59.0,46.4,63,29.92,10.0,SE,3.5,-,N/A,,Clear,140,2012-10-18 02:35:00
10:55 PM,59.0,44.6,59,29.92,10.0,SSE,6.9,-,N/A,,Clear,150,2012-10-18 02:55:00
11:15 PM,59.0,44.6,59,29.91,10.0,SSE,8.1,-,N/A,,Clear,150,2012-10-18 03:15:00
11:55 PM,57.2,44.6,63,29.90,10.0,SSE,8.1,-,N/A,,Clear,160,2012-10-18 03:55:00